Flag for U.S.A. Weather past 2 weeks in Lexington-Fayette, Kentucky, U.S.A.

Now
68 °F

Scattered clouds.


Feels Like: 68 °F
Forecast: 60 / 79 °F
Wind: 8 mph from South

Location: Blue Grass Airport

Current Time: Sep 20, 2014 at 1:04:59 PM

Latest Report: Sep 20, 2014 at 8:54 AM


Visibility: 10 mi

Pressure: 30.12 "Hg

Humidity: 78%

Dew point: 61 °F

Location of Lexington-FayetteLocation

Historic Weather in Lexington-Fayette — Graph

°F

Lexington-Fayette temperature yesterday

Maximum temperature yesterday: 79 °F (at 4:54 PM)
Minimum temperature yesterday: 54 °F (at 6:54 AM)
Average temperature yesterday: 66 °F

Past Weeks' High & Low Weather Summary

 TemperatureHumidityPressure
High91 °F (Sep 5, 4:54 PM)94% (Sep 9, 4:54 AM)30.29 "Hg (Sep 9, 4:54 AM)
Low49 °F (Sep 14, 6:54 AM)36% (Sep 7, 4:54 PM)29.83 "Hg (Sep 10, 7:54 PM)
Average68 °F72%30.08 "Hg
* Reported Sep 5 8:54 AM — Sep 20 8:54 AM, Lexington-Fayette, Weather by CustomWeather, © 2014

Note: Actual official high and low records may vary slightly from our data, if they occured in-between our weather recording intervals... More about our weather records

Advertising

Lexington-Fayette weather history for previous 24 hours

 ConditionsComfort  
Time TempWeatherWind HumidityBarometerVisibility
8:54 AM
Sep 20
68 °FScattered clouds.8 mph78%30.12 "Hg10 mi
7:54 AM66 °FPartly cloudy.9 mph81%30.11 "Hg10 mi
6:54 AM65 °FPassing clouds.8 mph85%30.09 "Hg10 mi
5:54 AM66 °FPassing clouds.9 mph81%30.08 "Hg10 mi
4:54 AM66 °FPassing clouds.9 mph81%30.06 "Hg10 mi
3:54 AM66 °FPassing clouds.9 mph81%30.06 "Hg10 mi
2:54 AM65 °FPartly cloudy.9 mph87%30.07 "Hg10 mi
1:54 AM63 °FPassing clouds.5 mph87%30.07 "Hg10 mi
12:54 AM64 °FPassing clouds.6 mph81%30.08 "Hg10 mi
11:54 PM
Sep 19
65 °FClear.6 mph76%30.08 "Hg10 mi
10:54 PM65 °FClear.5 mph76%30.08 "Hg10 mi
9:54 PM64 °FClear.No wind81%30.08 "Hg10 mi
8:54 PM68 °FClear.No wind70%30.08 "Hg10 mi
7:54 PM73 °FSunny.3 mph55%30.07 "Hg10 mi
6:54 PM76 °FSunny.3 mph50%30.07 "Hg10 mi
5:54 PM77 °FSunny.6 mph48%30.06 "Hg10 mi
4:54 PM79 °FSunny.3 mph44%30.07 "Hg10 mi
3:54 PM78 °FSunny.6 mph45%30.08 "Hg10 mi
2:54 PM76 °FSunny.8 mph47%30.09 "Hg10 mi
1:54 PM75 °FSunny.No wind45%30.11 "Hg10 mi
Weather by CustomWeather, © 2014

See weather overviewHow to use our weather pages